Air Force Academy, CO

11:20 AM MST on November 15, 2019 (GMT -0700)
Usaf Academy

Weather History for KAFF - October, 2019

Change the Weather History Date:

Wednesday, October 23, 2019

  Actual Average Record
Temperature  
Mean Temperature 40 °F -  
Max Temperature 53 °F 56 °F 82 °F (2003)
Min Temperature 28 °F 32 °F 21 °F (2008)
Degree Days  
Heating Degree Days 25    
Moisture  
Dew Point 26 °F    
Average Humidity 71    
Maximum Humidity 100    
Minimum Humidity 27    
Precipitation  
Precipitation 0.15 in - - ()
Snow  
Snow 0.00 in - - ()
Snow Depth 4.00 in    
Sea Level Pressure  
Sea Level Pressure 30.09 in    
Wind  
Wind Speed 12 mph (NNW)    
Max Wind Speed 20 mph    
Max Gust Speed 29 mph    
Visibility 6 miles    
Events Rain , Snow    
Averages and records for this station are not official NWS values.
T = Trace of Precipitation, MM = Missing Value Source: NWS Daily Summary

Daily Weather History Graph

Daily Weather History Graph

Search for Another Location

Airport or City:

Astronomy

Oct. 23, 2019 Rise Set
Actual Time 7:16 AM MDT 6:09 PM MDT
Civil Twilight 6:49 AM MDT 6:36 PM MDT
Nautical Twilight 6:18 AM MDT 7:08 PM MDT
Astronomical Twilight 5:47 AM MDT 7:38 PM MDT
Moon 1:42 AM MDT (10/23) 3:58 PM MDT (10/23)
Length of Visible Light 11h 47m
Length of Day
10h 53m
Waning Crescent, 26% of the Moon is Illuminated
Oct 23
Waning Crescent
Oct 27
New
Nov 4
First Quarter
Nov 12
Full
Nov 19
Last Quarter

Hourly Weather History & Observations

Time (MDT) Temp. Windchill Dew Point Humidity Pressure Visibility Wind Dir Wind Speed Gust Speed Precip Events Conditions
12:00 AM 51.8 °F - 19.4 °F 28% 29.83 in 10.0 mi West 17.3 mph 25.3 mph N/A   Clear
12:27 AM 51.8 °F - 19.4 °F 28% 29.82 in 10.0 mi West 12.7 mph 24.2 mph N/A   Clear
12:58 AM 51.1 °F - 19.0 °F 28% 29.82 in 10.0 mi WNW 19.6 mph 28.8 mph N/A   Clear
1:05 AM 51.8 °F - 19.4 °F 28% 29.83 in 10.0 mi NNW 9.2 mph 27.6 mph N/A   Clear
1:56 AM 45.1 °F 39.5 °F 18.5 °F 35% 29.85 in 10.0 mi North 11.5 mph 19.6 mph N/A   Clear
2:58 AM 49.5 °F - 16.9 °F 27% 29.82 in 10.0 mi NW 12.7 mph - N/A   Clear
3:58 AM 47.3 °F - 15.8 °F 28% 29.82 in 10.0 mi NW 3.5 mph - N/A   Clear
4:58 AM 45.5 °F 41.3 °F 15.8 °F 30% 29.84 in 10.0 mi North 8.1 mph - N/A   Clear
5:58 AM 39.9 °F 34.5 °F 15.1 °F 36% 29.92 in 10.0 mi NE 8.1 mph - N/A   Clear
6:58 AM 31.6 °F 27.0 °F 14.7 °F 50% 29.97 in 10.0 mi NW 4.6 mph - N/A   Partly Cloudy
7:58 AM 35.2 °F 26.6 °F 23.5 °F 62% 30.01 in 10.0 mi North 12.7 mph - N/A   Scattered Clouds
8:31 AM 33.8 °F 23.2 °F 26.6 °F 75% 30.04 in 10.0 mi North 17.3 mph - N/A   Scattered Clouds
8:32 AM 33.8 °F 23.5 °F 26.6 °F 75% 30.04 in 10.0 mi North 16.1 mph - N/A   Scattered Clouds
8:36 AM 33.8 °F 23.2 °F 26.6 °F 75% 30.06 in 10.0 mi North 17.3 mph - N/A   Mostly Cloudy
8:58 AM 34.9 °F 25.7 °F 28.0 °F 76% 30.04 in 10.0 mi North 13.8 mph - N/A   Mostly Cloudy
9:28 AM 37.4 °F 28.5 °F 28.4 °F 70% 30.03 in 10.0 mi North 15.0 mph - N/A   Mostly Cloudy
9:51 AM 39.2 °F 31.2 °F 28.4 °F 65% 30.03 in 10.0 mi North 13.8 mph - N/A   Scattered Clouds
9:58 AM 38.3 °F 30.5 °F 28.2 °F 67% 30.03 in 10.0 mi North 12.7 mph - N/A   Scattered Clouds
10:15 AM 41.0 °F 34.7 °F 28.4 °F 61% 30.00 in 10.0 mi North 10.4 mph - N/A   Partly Cloudy
10:58 AM 43.9 °F 39.3 °F 27.3 °F 52% 29.97 in 10.0 mi WNW 8.1 mph - N/A   Scattered Clouds
11:58 AM 48.2 °F - 25.0 °F 40% 29.94 in 10.0 mi Calm Calm - N/A   Scattered Clouds
12:58 PM 51.1 °F - 23.7 °F 34% 29.89 in 10.0 mi SSE 8.1 mph - N/A   Mostly Cloudy
1:58 PM 52.2 °F - 23.2 °F 32% 29.91 in 10.0 mi SSW 3.5 mph - N/A   Mostly Cloudy
2:29 PM 50.0 °F - 23.0 °F 35% 29.90 in 10.0 mi SE 17.3 mph 23.0 mph N/A Rain Light Rain Showers
2:31 PM 50.0 °F - 23.0 °F 35% 29.90 in 10.0 mi ESE 15.0 mph 23.0 mph N/A Rain Light Rain Showers
2:38 PM 50.0 °F - 23.0 °F 35% 29.90 in 10.0 mi NE 15.0 mph 23.0 mph N/A   Overcast
2:58 PM 46.9 °F - 23.9 °F 40% 29.93 in 10.0 mi NNE 19.6 mph - N/A Rain Light Rain Showers
3:11 PM 42.8 °F 34.5 °F 30.2 °F 61% 29.97 in 8.0 mi NNE 18.4 mph - N/A Rain Light Rain Showers
3:34 PM 39.2 °F 29.8 °F 32.0 °F 75% 30.01 in 7.0 mi NNE 18.4 mph 23.0 mph N/A Rain Light Rain
3:49 PM 35.6 °F 27.5 °F 33.8 °F 93% 30.06 in 10.0 mi North 11.5 mph 23.0 mph N/A Snow Light Snow
3:58 PM 35.2 °F 26.6 °F 32.5 °F 90% 30.07 in 8.0 mi NNW 12.7 mph - 0.03 in Snow Light Snow
4:13 PM 33.8 °F 26.4 °F 33.8 °F 100% 30.09 in 5.0 mi NNW 9.2 mph - N/A Snow Light Snow
4:58 PM 34.3 °F 25.5 °F 32.7 °F 94% 30.11 in 7.0 mi North 12.7 mph - 0.05 in Snow Light Snow
5:13 PM 33.8 °F 24.3 °F 32.0 °F 93% 30.12 in 1.2 mi North 13.8 mph - N/A Snow Light Snow
5:45 PM 32.0 °F 24.2 °F 32.0 °F 100% 30.18 in 0.9 mi North 9.2 mph - N/A Snow Light Snow
5:58 PM 32.2 °F 25.0 °F 31.5 °F 97% 30.20 in 0.6 mi NNW 8.1 mph - 0.07 in Snow Light Snow
6:58 PM 31.5 °F 21.4 °F 31.3 °F 99% 30.28 in 0.8 mi NNW 13.8 mph - N/A Snow Light Snow
7:58 PM 30.6 °F 23.1 °F 30.4 °F 99% 30.32 in 1.2 mi NW 8.1 mph - N/A Snow Light Snow
8:01 PM 30.2 °F 21.9 °F 30.2 °F 100% 30.32 in 1.0 mi NW 9.2 mph - N/A Snow Light Snow
8:17 PM 30.2 °F 21.3 °F 30.2 °F 100% 30.30 in 1.2 mi NNW 10.4 mph - N/A Snow Light Snow
8:30 PM 30.2 °F 20.2 °F 30.2 °F 100% 30.30 in 1.6 mi North 12.7 mph - N/A Snow Light Snow
8:58 PM 29.8 °F 21.5 °F 29.7 °F 99% 30.31 in 1.5 mi NW 9.2 mph - N/A Snow Light Snow
9:02 PM 30.2 °F 21.9 °F 30.2 °F 100% 30.30 in 2.2 mi NNW 9.2 mph - N/A Snow Light Snow
9:17 PM 30.2 °F 23.4 °F 28.4 °F 93% 30.29 in 3.0 mi NW 6.9 mph - N/A Snow Light Snow
9:29 PM 30.2 °F 24.3 °F 28.4 °F 93% 30.31 in 2.0 mi NW 5.8 mph - N/A Snow Light Snow
9:32 PM 30.2 °F 23.4 °F 28.4 °F 93% 30.31 in 1.8 mi NW 6.9 mph - N/A Snow Light Snow
9:34 PM 30.2 °F 22.6 °F 28.4 °F 93% 30.31 in 1.4 mi NW 8.1 mph - N/A Snow Light Snow
9:39 PM 30.2 °F 22.6 °F 28.4 °F 93% 30.30 in 1.1 mi NNW 8.1 mph - N/A Snow Light Snow
9:59 PM 29.7 °F 20.7 °F 29.5 °F 99% 30.34 in 1.8 mi NW 10.4 mph - N/A Snow Light Snow
10:08 PM 30.2 °F 21.9 °F 30.2 °F 100% 30.32 in 1.8 mi NNW 9.2 mph - N/A Snow Light Snow
10:23 PM 30.2 °F 21.3 °F 30.2 °F 100% 30.33 in 0.9 mi NNW 10.4 mph - N/A Snow Light Snow
10:33 PM 30.2 °F 19.8 °F 28.4 °F 93% 30.33 in 0.9 mi NNW 13.8 mph - N/A Snow Light Snow
10:49 PM 28.4 °F 21.2 °F 28.4 °F 100% 30.33 in 1.1 mi NNW 6.9 mph - N/A Snow Light Snow
10:58 PM 28.6 °F 19.9 °F 27.9 °F 97% 30.33 in 1.1 mi NNW 9.2 mph - N/A Snow Light Snow
11:29 PM 28.4 °F 19.1 °F 26.6 °F 93% 30.30 in 2.8 mi North 10.4 mph - N/A Snow Light Snow
11:58 PM 28.0 °F 20.0 °F 26.1 °F 92% 30.30 in 4.0 mi NNW 8.1 mph - N/A Snow Light Snow